BLOCK DM-SL R/B, 26452

Orbit data source: Space-Track

BLOCK DM-SL R/B, 26452 is space debris in HEO originally from a launch on Fri, 28 Jul 2000 UTC launched from the Sea Launch (SEAL). Debris objects in space refer to the collection of defunct objects orbiting the Earth. Examples of debris include non-operational satellites, rocket bodies, and fragments generated from explosions, collisions, or faulty payload assembly.

Not visible in the next 10 days
Identifier
26452, 2000-043B
Orbit
HEO
Country
Flag of UnknownUnknown / SEAL
Related business
Manufacturer
RKKE
Mission
Spacecraft
Bus & Motor
BLOK DM2, Unknown motor
Mass
~3,210 kg wet, ~3,210 kg dry
Launch date (UTC)
2000-07-28 (25 years ago)
Launch vehicle
Unknown
Launch site
Sea Launch (SEAL)
Object type
Payload
Rocket body
Debris
Shape & HBR
Cyl, 3.1 m
Radar Cross Section
23.684 m², Large (>1 m²)

Expand to show TLE details & history
Last TLE update: 18 hours ago

TLE from 18 hours ago
0 BLOCK DM-SL R/B
1 26452U 00043B   25261.18107264  .00000009  00000-0  00000-0 0  9990
2 26452   0.7518 151.5504 6719207 118.4185   9.7669  2.16747064198690
Epoch: 2025-09-18T04:20Z
TLE epoch observation values (Epoch: 2025-09-18T04:20:44.676Z)
Latitude
0.04471°
Longitude
-95.0186°
Altitude
3,816.3 km
Speed
7.899 km/s
True Right ascension
21h 50m 03s
True Declination
0° 02' 40"
Sunlit
Object was in full shadow at epoch
Visualization orbit readout
Latitude
Unknown
Longitude
Unknown
Altitude
Unknown
Speed
Unknown
Apparent Right ascension
Unknown
Apparent Declination
Unknown
Sunlit
N/A
Visualization observer readout
Local Sidereal Time
15:03:32
Azimuth
Unknown
Elevation
Unknown
Doppler factor
Unknown
Orbital elements
Apogee altitude
35,796.98 km
Perigee altitude
1,897.843 km
Semi-major axis
25,225.549 km
Eccentricity
0.67192
Inclination
0.7518°
RAAN
151.5504°
Arg. of periapsis
118.4185°
True anomaly
58.02872°
Mean anomaly
9.7669°
Eccentric anomaly
27.60735°
Mean motion
0.54173 °/min
Orbital period
664.54 mins
BSTAR
0
Loading maneuver chart data...
Computing Atmospheric mass density...
Loading historical data...
Loading historical data...
Loading historical data...
Loading historical data...
Loading historical data...
Loading historical data...
Loading historical data...
Other satellites on launch #43 in the year 2000 (2000-07-28 UTC)

Documentation

Showing up to 5 results
|